Find Kosmos-942

NORAD ID: 10288 Int'l Des: 1977-079 Owner: GUKOSR Country: SU operational
LEOCIRCULAR

当前视图

正在加载3D地球...

About Kosmos-942

Kosmos-942 (NORAD 10288) is a satellite launched Aug 24, 1977 by GUKOSR of SU. It operates in LEO, CIRCULAR orbit with a mass of 60.00 kg.

即将过境

Passes for default location (London). Set your location on the main map for personalized predictions.

高度历史

Loading altitude history...

两行轨道根数

1 10288U 77079D 26194.92262829 .00000004 00000-0 14238-3 0 9996
2 10288 74.0246 267.8831 0044114 111.0378 2.6596 12.42259253199668
Epoch: Jul 13, 2026 • Age: 18 hours

当前状态

高度 1473.1 km
远地点 / 近地点 N/A
速度 7.14 km/s
星下点 30.25°N, 90.98°W
发射日期 Aug 24, 1977
运行时间 48.8 years
类型 other

技术详情

分类 Payload
质量 60.00 kg
干质量 60.00 kg
总质量 60.00 kg
长度 0.80 m
直径 0.80 m
跨度 0.80 m
形状 Poly
制造商 NPOPM
平台类型 Strela-1 11F625
阶段状态 In Orbit
所有者/国家 GUKOSR/SU

Most Searched